CW0009 Weather Reports


Display with metric or nautical units.
time (UTC)temp
F
wind
direction
speed
MPH
gust
MPH
rain 1hr
in
rain 24hr
in
rain mn
in
humidity
%
barometer
mb
20171218143014 46 320 7.0 8.0 0.00 0.18 0.07 90 1025.0
20171218142012 46 355 6.0 7.0 0.00 0.18 0.07 90 1025.0
20171218141034 46 350 5.0 8.0 0.00 0.18 0.07 90 1025.0
20171218140010 46 40 6.0 8.0 0.00 0.18 0.07 90 1025.0
20171218135012 46 355 6.0 9.0 0.00 0.18 0.07 90 1025.0
20171218134034 46 10 6.0 6.0 0.00 0.18 0.07 90 1025.0
20171218133014 46 20 8.0 9.0 0.00 0.18 0.07 90 1025.0
20171218132033 47 355 7.0 9.0 0.00 0.18 0.07 90 1025.0
20171218131033 47 355 8.0 9.0 0.00 0.18 0.07 90 1025.0
20171218130034 47 350 7.0 12.0 0.00 0.18 0.07 90 1024.0
20171218125012 47 30 7.0 9.0 0.00 0.18 0.07 90 1024.0
20171218122012 47 345 8.0 10.0 0.00 0.18 0.07 90 1024.0
20171218121033 47 20 7.0 10.0 0.00 0.18 0.07 90 1024.0
20171218120011 46 340 8.0 8.0 0.00 0.18 0.07 91 1024.0
20171218115033 46 345 9.0 10.0 0.00 0.18 0.07 91 1024.0
20171218114012 46 355 9.0 10.0 0.00 0.18 0.07 91 1024.0
20171218113014 46 335 9.0 9.0 0.00 0.18 0.07 91 1024.0
20171218112013 46 345 9.0 13.0 0.00 0.20 0.07 91 1024.0
20171218110011 45 350 8.0 8.0 0.00 0.20 0.07 91 1024.0
20171218105033 45 335 8.0 10.0 0.00 0.20 0.07 91 1024.0
20171218104012 45 340 9.0 10.0 0.00 0.20 0.07 91 1023.0
20171218103014 45 325 9.0 12.0 0.00 0.20 0.07 91 1023.0
20171218102012 45 345 9.0 12.0 0.00 0.20 0.07 91 1023.0
20171218101013 45 345 9.0 10.0 0.00 0.20 0.07 91 1023.0
20171218100011 45 345 8.0 10.0 0.00 0.20 0.07 91 1023.0
20171218095012 45 340 7.0 8.0 0.00 0.20 0.07 91 1023.0
20171218094013 44 335 6.0 8.0 0.00 0.20 0.07 91 1023.0
20171218093036 44 355 6.0 8.0 0.00 0.20 0.07 91 1023.0
20171218092019 44 345 7.0 10.0 0.00 0.20 0.07 91 1022.0
20171218090034 44 345 8.0 9.0 0.00 0.20 0.07 91 1022.0
20171218084012 44 345 7.0 9.0 0.00 0.20 0.07 91 1022.0
20171218083014 43 350 7.0 10.0 0.00 0.20 0.07 91 1022.0
20171218082012 43 350 7.0 9.0 0.00 0.20 0.07 91 1022.0
20171218081012 43 335 7.0 9.0 0.00 0.20 0.07 91 1021.0
20171218080012 43 335 8.0 8.0 0.00 0.20 0.07 91 1021.0
20171218075012 43 345 9.0 12.0 0.00 0.20 0.07 91 1021.0
20171218074012 43 330 8.0 10.0 0.00 0.20 0.07 91 1021.0
20171218073013 43 355 9.0 10.0 0.00 0.20 0.07 91 1020.0
20171218072034 43 340 12.0 14.0 0.00 0.20 0.07 91 1020.0
20171218071012 43 330 10.0 14.0 0.00 0.20 0.07 91 1020.0
20171218070012 43 335 9.0 10.0 0.00 0.20 0.07 91 1020.0
20171218065034 43 325 9.0 9.0 0.00 0.20 0.07 91 1020.0
20171218064012 43 350 10.0 10.0 0.00 0.20 0.07 91 1019.0
20171218063015 43 335 10.0 13.0 0.00 0.20 0.07 91 1019.0
20171218062012 43 340 10.0 12.0 0.00 0.20 0.07 91 1019.0
20171218060012 43 350 10.0 13.0 0.00 0.20 0.07 91 1019.0
20171218054013 43 325 9.0 9.0 0.00 0.20 0.07 91 1019.0
20171218053014 43 320 10.0 10.0 0.00 0.20 0.07 91 1019.0
20171218052012 43 320 12.0 12.0 0.00 0.20 0.07 91 1018.0
20171218051012 43 340 14.0 15.0 0.00 0.20 0.07 91 1018.0
20171218050013 44 330 14.0 17.0 0.00 0.20 0.07 91 1018.0
20171218045012 44 335 12.0 17.0 0.00 0.20 0.07 91 1018.0
20171218044012 44 330 10.0 12.0 0.00 0.20 0.07 91 1018.0
20171218043015 44 330 10.0 13.0 0.01 0.20 0.07 91 1018.0
20171218042013 44 335 10.0 12.0 0.01 0.20 0.07 91 1018.0
20171218041013 44 330 10.0 10.0 0.03 0.20 0.07 91 1018.0
20171218040012 44 340 9.0 12.0 0.03 0.20 0.07 91 1018.0
20171218035012 44 340 9.0 12.0 0.03 0.20 0.07 91 1017.0
20171218033035 44 340 10.0 14.0 0.01 0.18 0.06 91 1017.0
20171218032013 44 335 8.0 13.0 0.01 0.18 0.06 91 1017.0
20171218030017 43 330 8.0 13.0 0.00 0.17 0.04 91 1017.0
20171218025013 43 335 6.0 13.0 0.01 0.17 0.04 92 1017.0
20171218024012 42 305 5.0 6.0 0.01 0.17 0.04 91 1017.0
20171218023014 42 270 3.0 6.0 0.01 0.17 0.04 91 1017.0
20171218022013 42 235 3.0 5.0 0.01 0.17 0.04 91 1017.0
20171218021034 42 235 3.0 6.0 0.01 0.17 0.04 91 1017.0
20171218020013 42 225 2.0 5.0 0.01 0.17 0.04 91 1017.0
20171218015012 42 240 3.0 5.0 0.00 0.16 0.03 91 1016.0
20171218012012 41 230 9.0 10.0 0.01 0.16 0.03 91 1016.0
20171218011034 41 235 7.0 10.0 0.01 0.16 0.03 91 1016.0
20171218010015 41 230 8.0 10.0 0.01 0.17 0.03 91 1017.0
20171218004012 40 220 13.0 15.0 0.01 0.16 0.01 91 1016.0
20171218003015 40 225 13.0 15.0 0.01 0.17 0.01 91 1016.0
20171218002012 40 205 13.0 15.0 0.01 0.18 0.01 91 1016.0
20171218001012 40 210 12.0 14.0 0.01 0.20 0.01 91 1017.0
20171218000013 40 195 10.0 14.0 0.01 0.20 0.01 91 1017.0
20171217235012 40 215 10.0 13.0 0.01 0.18 0.00 91 1017.0
20171217234012 40 195 10.0 13.0 0.03 0.18 0.00 91 1017.0
20171217233015 40 205 13.0 12.0 0.03 0.18 0.00 91 1017.0
20171217232013 40 195 15.0 18.0 0.04 0.18 0.00 91 1017.0
20171217230013 39 190 15.0 16.0 0.06 0.18 0.18 91 1018.0
20171217225013 39 210 16.0 18.0 0.06 0.17 0.17 91 1017.0
20171217224012 39 200 16.0 18.0 0.06 0.16 0.16 91 1017.0
20171217223015 39 195 14.0 20.0 0.07 0.16 0.16 91 1017.0
20171217222034 39 195 14.0 16.0 0.06 0.14 0.14 91 1017.0
20171217221013 39 180 14.0 16.0 0.07 0.13 0.14 91 1017.0
20171217215012 39 185 14.0 16.0 0.03 0.10 0.10 91 1017.0
20171217214034 39 190 16.0 16.0 0.03 0.10 0.10 91 1018.0
20171217213015 39 190 15.0 21.0 0.01 0.09 0.09 91 1018.0
20171217212033 39 190 15.0 14.0 0.00 0.07 0.07 91 1018.0
20171217211013 39 190 16.0 17.0 0.00 0.07 0.07 91 1019.0
20171217210013 39 185 15.0 21.0 0.00 0.07 0.07 91 1019.0
20171217205012 39 185 14.0 16.0 0.00 0.07 0.07 91 1019.0
20171217203015 38 185 12.0 13.0 0.00 0.07 0.07 91 1019.0
20171217202013 38 180 13.0 13.0 0.00 0.07 0.07 91 1020.0
20171217201012 38 185 13.0 14.0 0.00 0.07 0.07 91 1020.0
20171217200011 38 180 13.0 14.0 0.00 0.07 0.07 91 1020.0
20171217195034 38 185 13.0 15.0 0.00 0.07 0.07 91 1020.0
20171217194012 38 185 12.0 15.0 0.00 0.07 0.07 91 1020.0
20171217193036 38 185 12.0 14.0 0.00 0.07 0.07 91 1021.0
20171217192034 38 185 12.0 14.0 0.00 0.07 0.07 91 1021.0
20171217191012 38 195 10.0 14.0 0.00 0.07 0.07 91 1022.0
20171217190034 38 190 10.0 14.0 0.00 0.07 0.07 91 1022.0
20171217185013 38 195 12.0 15.0 0.00 0.07 0.07 91 1022.0
20171217184013 38 200 12.0 15.0 0.00 0.07 0.07 91 1022.0
20171217183013 38 205 10.0 13.0 0.00 0.07 0.07 91 1023.0
20171217182012 38 200 10.0 12.0 0.00 0.07 0.07 91 1023.0
20171217181035 38 200 10.0 12.0 0.00 0.07 0.07 91 1023.0
20171217180024 39 195 9.0 10.0 0.00 0.07 0.07 91 1023.0
20171217175013 39 190 8.0 10.0 0.00 0.07 0.07 91 1023.0
20171217173014 39 200 7.0 12.0 0.00 0.07 0.07 91 1023.0
20171217172012 39 200 8.0 12.0 0.00 0.07 0.07 91 1023.0
20171217171013 39 200 8.0 10.0 0.00 0.07 0.07 91 1023.0
20171217170013 39 200 8.0 10.0 0.00 0.09 0.07 91 1023.0
20171217165012 39 195 8.0 10.0 0.00 0.10 0.07 91 1023.0
20171217164033 39 200 6.0 9.0 0.00 0.10 0.07 91 1023.0
20171217163015 39 200 6.0 6.0 0.00 0.10 0.07 91 1023.0
20171217162034 39 195 6.0 9.0 0.00 0.10 0.07 91 1023.0
20171217161012 39 200 6.0 9.0 0.00 0.10 0.07 91 1023.0
20171217160012 39 215 6.0 7.0 0.00 0.10 0.07 91 1023.0
20171217155013 39 210 6.0 7.0 0.00 0.10 0.07 91 1023.0
20171217154012 39 210 5.0 7.0 0.00 0.10 0.07 91 1024.0
20171217153020 40 200 3.0 6.0 0.00 0.10 0.07 91 1024.0
20171217152013 40 205 3.0 5.0 0.00 0.10 0.07 91 1024.0
20171217151013 40 215 4.0 3.0 0.00 0.11 0.07 91 1024.0
20171217150025 40 215 6.0 7.0 0.00 0.11 0.07 91 1024.0
20171217145013 40 215 5.0 7.0 0.00 0.13 0.07 91 1024.0